Location: Absher
(46.5583°N, 107.9840°W)
Time: 08:13:03
(UTC+00:00)

STRAND 1 - Pass Details

Date: 02 April 2023
Orbit: 767 x 779 km, 98.4° (Epoch: 03 June)

Event Time Altitude Azimuth Distance (km) Brightness Sun altitude
Rises 02:55:01 0° 7° (N) 3,251 ? -13.1°
Reaches altitude 10° 02:57:28 10° 359° (N) 2,319 ? -13.5°
Maximum altitude 03:02:08 38° 293° (WNW) 1,171 ? -14.2°
Drops below altitude 10° 03:06:47 10° 227° (SW) 2,304 ? -15.0°
Sets 03:09:12 0° 219° (SW) 3,227 ? -15.4°
